Wind_Speed
25 25 24 23 23 24 24 24 23 21 21 20 21 22 23 23 23 24 24 25 26 27 29 30 31 32 33 35 36 36 37 38 39 39 39 40 40 41 41 42 43 45 45 46
28 28 28 27 26 26 26 26 26 25 24 23 24 25 25 25 26 27 27 28 28 29 30 31 32 33 35 36 37 38 39 40 41 41 41 42 42 42 43 44 45 46 47 47
32 31 31 31 29 29 29 29 29 28 27 28 28 28 27 28 28 29 30 31 31 32 32 33 34 35 36 37 39 39 40 41 42 43 43 43 44 44 44 45 46 47 47 47
36 35 35 33 32 31 32 31 31 31 30 31 31 31 31 31 32 32 32 32 33 34 34 34 35 36 37 38 39 40 41 42 43 43 44 45 45 46 46 46 46 46 47 47
39 39 38 35 35 35 35 34 34 34 33 34 34 34 34 35 36 36 35 35 35 36 36 37 38 38 39 40 41 42 43 44 45 46 46 46 47 47 47 47 47 47 47 48
41 41 41 38 38 38 38 38 36 36 37 37 37 38 37 38 38 38 37 37 38 38 39 39 40 41 42 43 43 44 45 46 47 47 48 48 48 48 49 49 49 49 49 50
43 43 42 40 40 40 40 40 39 39 39 39 40 40 40 40 40 40 39 40 40 41 41 42 42 43 43 44 44 45 46 47 48 48 49 49 49 50 50 50 50 50 51 51
44 44 44 42 42 42 42 43 43 42 42 42 42 42 42 42 42 42 42 42 42 43 43 44 44 45 46 46 46 47 47 48 49 49 50 50 50 50 51 51 51 51 51 51
45 45 46 45 45 45 45 45 45 45 44 44 44 44 44 44 44 44 45 45 45 45 45 45 46 46 47 47 48 48 48 48 49 50 50 50 50 51 51 52 51 51 51 51
46 45 46 47 47 47 47 47 47 47 46 46 46 46 46 46 46 46 47 47 47 47 47 47 47 47 47 48 48 49 49 49 49 49 49 49 50 50 51 51 51 51 52 52
48 46 47 47 48 49 50 49 48 48 47 47 48 48 48 48 47 48 48 48 48 48 48 48 48 47 48 48 48 48 48 49 49 49 49 49 50 50 50 51 51 51 51 51
49 49 50 49 49 50 50 50 49 49 48 48 48 48 48 48 48 48 48 48 48 48 48 48 47 48 48 48 48 48 48 48 48 48 48 49 49 50 50 51 51 51 51 51
49 49 50 49 49 49 50 50 49 48 48 48 48 48 48 49 48 48 48 48 48 48 48 47 48 48 48 48 48 48 48 48 48 48 48 48 48 49 49 49 50 50 50 51
48 48 49 49 49 49 48 48 48 48 48 47 47 47 47 47 47 48 48 48 48 47 47 47 47 47 47 47 47 47 47 47 47 47 47 47 48 48 49 49 49 49 50 50
47 48 48 48 48 48 48 47 48 48 47 47 46 47 47 47 46 46 46 47 47 47 47 46 46 46 46 46 46 46 46 46 46 47 47 47 48 48 48 48 49 49 49 49
46 46 46 46 46 46 46 46 47 47 47 47 46 46 46 46 46 45 45 45 45 45 45 46 46 46 46 46 46 46 47 47 47 47 48 48 48 48 48 48 48 48 48 48
43 43 44 45 44 44 44 45 45 45 46 46 46 46 46 45 45 45 45 46 46 45 45 46 46 46 46 46 46 46 47 47 47 47 48 47 47 47 47 47 47 47 47 47
40 41 41 42 42 42 42 42 43 44 44 44 44 44 44 45 45 45 45 45 45 45 45 45 46 46 46 46 46 46 46 46 47 47 47 47 47 47 46 46 46 46 45 44
38 39 39 39 39 39 40 41 41 42 42 42 42 43 43 44 44 44 45 45 44 44 44 44 45 45 45 45 46 46 46 47 47 47 47 46 46 45 45 44 44 44 43 42
37 37 38 38 38 38 38 38 39 39 40 40 40 41 41 41 42 43 43 43 43 43 43 43 43 44 44 45 45 45 45 45 45 45 45 44 44 43 43 42 42 41 40 40
35 36 36 37 37 37 37 37 37 37 37 38 38 38 39 40 41 41 42 41 41 42 42 43 43 43 44 44 44 43 43 43 43 43 42 42 41 41 40 40 39 39 38 38
34 34 34 35 35 36 36 37 37 37 37 37 37 37 38 38 39 40 40 40 40 41 41 41 41 41 41 42 42 42 41 41 41 40 40 40 39 39 38 38 37 37 37 36
34 34 34 34 34 35 35 35 35 36 36 36 36 37 37 37 37 37 37 38 39 39 39 39 40 40 40 40 40 40 40 39 39 39 39 39 39 38 36 36 36 35 34 33
33 33 33 34 34 34 33 33 33 33 34 34 34 34 35 35 36 36 36 36 37 37 37 38 38 39 39 39 39 39 38 38 38 38 37 37 37 35 34 34 33 33 32 31
31 31 32 32 32 32 32 32 32 32 33 32 32 33 34 34 33 33 34 35 35 36 36 36 36 36 36 37 37 37 37 36 36 35 35 34 33 33 32 32 32 31 31 30
30 30 30 31 31 31 31 31 31 32 33 32 32 33 33 34 34 34 34 34 34 34 34 33 33 34 34 35 35 34 34 33 33 32 32 31 31 30 30 30 29 29 28 28
29 29 28 28 29 30 30 30 31 32 32 32 32 32 33 33 33 33 33 32 32 33 33 33 33 33 33 33 32 32 31 31 30 30 29 28 28 27 27 26 26 26 25 25
Wind_Direction
278 279 280 280 281 282 284 286 287 288 288 285 282 279 277 276 276 274 271 268 266 266 266 265 265 265 265 265 266 267 268 269 271 271 272 273 274 275 276 275 274 273 273 274
276 277 277 277 277 279 281 283 285 285 285 285 282 281 279 277 275 273 271 269 268 268 268 267 267 267 267 267 267 268 269 270 271 272 273 274 275 276 276 277 276 274 274 275
276 275 275 276 277 277 279 281 283 284 285 283 282 281 280 279 277 275 273 272 271 270 270 269 269 269 269 269 269 270 271 272 273 273 274 275 276 276 277 277 277 276 276 276
276 276 275 278 278 278 278 279 281 281 282 283 282 281 280 279 279 277 276 275 273 273 272 272 272 272 271 272 272 272 272 273 274 274 275 276 277 277 277 277 276 276 276 276
274 275 276 277 278 278 278 278 279 279 278 279 280 279 279 278 278 278 277 276 274 274 274 274 274 274 274 274 273 274 274 275 275 276 276 277 277 277 277 277 277 277 276 276
273 274 275 277 278 278 277 277 278 277 276 276 277 278 278 278 278 277 276 275 274 274 274 275 275 275 275 276 276 275 275 276 276 277 277 277 277 278 278 278 278 278 277 276
272 274 275 276 277 277 277 278 277 276 276 276 276 277 278 278 277 276 276 275 274 274 275 275 275 276 277 276 276 277 277 277 278 278 278 279 279 279 279 279 279 279 278 278
270 272 274 276 276 276 277 277 277 277 276 276 276 276 276 276 276 276 276 276 276 275 275 276 276 277 277 277 277 277 278 279 279 279 279 279 279 279 279 279 279 279 278 278
270 271 272 273 274 274 275 276 277 277 276 276 276 276 276 275 275 275 276 277 277 277 277 277 278 278 278 278 278 279 279 280 280 279 279 279 279 279 279 279 278 278 278 278
268 270 271 271 272 273 274 275 276 276 276 276 276 276 275 275 274 275 275 275 276 276 277 277 278 278 278 278 279 279 280 280 281 280 279 279 279 279 279 278 278 277 277 278
267 269 270 270 270 271 272 273 274 274 274 274 274 275 275 275 274 274 274 275 276 276 277 277 277 277 278 278 279 279 280 280 280 280 280 279 279 278 278 278 278 278 278 278
268 268 269 269 270 271 271 272 273 273 273 273 274 274 274 274 275 275 275 276 276 276 276 276 277 277 278 279 279 280 280 281 281 281 280 279 278 278 278 278 279 279 278 278
269 268 269 269 269 270 271 271 271 271 271 272 272 272 273 273 274 275 276 276 276 276 276 277 277 277 278 279 279 280 281 281 281 282 281 281 280 279 278 278 279 279 279 279
267 267 267 267 268 268 269 269 270 270 270 270 271 272 273 273 274 275 276 277 277 277 277 278 278 278 279 279 280 281 281 281 282 281 281 281 281 280 279 278 278 279 280 280
266 267 267 267 267 268 268 268 269 269 268 268 269 271 272 273 274 275 275 276 276 277 278 278 278 279 279 279 280 280 281 281 281 281 281 281 281 281 280 279 279 280 280 280
266 267 267 268 268 268 268 268 268 268 268 269 270 271 273 274 275 275 275 276 276 277 278 278 278 279 279 279 280 280 280 281 281 281 281 281 281 281 281 280 280 281 281 280
267 267 268 268 269 269 268 268 269 269 270 271 272 273 274 274 275 275 276 276 276 277 277 278 278 278 279 279 279 279 280 280 280 281 281 281 281 281 281 281 281 282 281 281
268 269 269 269 270 270 269 270 270 270 271 272 273 273 273 273 274 275 275 276 276 276 277 277 277 277 278 278 279 280 280 280 280 281 281 281 281 281 282 282 281 282 282 282
270 271 270 270 270 270 270 271 272 272 272 273 273 274 274 274 274 275 276 276 277 277 277 277 278 278 278 279 279 280 280 280 281 281 282 282 282 282 282 283 283 282 281 281
271 271 271 270 270 271 272 272 273 274 274 275 275 275 274 274 274 275 276 276 277 278 277 277 278 278 279 280 280 279 280 280 281 282 282 282 282 282 282 283 283 282 282 281
272 273 272 272 272 272 273 274 274 275 275 276 276 275 274 274 275 276 276 277 277 278 279 279 279 280 280 280 280 280 280 281 281 281 281 282 282 282 282 283 282 282 283 282
274 275 274 273 273 273 274 274 275 276 276 276 276 277 277 276 277 278 278 279 279 280 280 281 281 281 281 281 281 281 280 281 281 281 281 281 282 282 281 281 281 281 282 281
275 275 275 274 275 276 275 276 277 277 278 278 278 278 278 278 279 280 280 280 280 281 281 281 281 281 281 281 282 281 281 281 281 281 281 281 282 281 280 280 280 281 280 280
274 275 276 276 276 276 275 275 276 277 278 279 279 280 280 280 280 281 282 282 282 282 282 282 282 281 281 281 282 282 282 282 282 281 281 282 281 280 280 280 279 279 278 278
279 279 278 277 276 277 277 277 277 278 279 279 279 280 281 282 283 283 283 283 284 284 284 283 283 282 282 282 282 282 282 282 282 282 281 281 281 280 280 279 279 279 278 277
280 280 280 279 278 278 277 278 278 279 279 280 280 281 282 283 283 284 284 284 284 284 284 284 284 284 283 283 284 284 283 282 281 281 281 281 281 281 280 280 279 278 277 276
281 281 281 281 281 280 280 281 282 281 281 281 280 280 281 281 282 283 283 284 284 284 285 285 285 285 284 284 284 284 283 281 280 280 281 282 282 281 280 280 279 278 276 275
Height
5675 5674 5673 5673 5672 5670 5668 5667 5666 5666 5664 5664 5662 5661 5660 5660 5659 5658 5658 5657 5657 5657 5657 5657 5657 5657 5658 5658 5657 5657 5657 5656 5656 5655 5655 5654 5653 5652 5651 5650 5650 5649 5648 5647
5668 5667 5665 5665 5665 5663 5662 5660 5659 5658 5658 5657 5655 5654 5653 5652 5652 5651 5650 5650 5649 5649 5648 5648 5648 5648 5648 5648 5647 5647 5647 5646 5645 5644 5644 5643 5642 5640 5639 5638 5637 5636 5635 5634
5658 5658 5656 5656 5657 5656 5654 5653 5652 5651 5652 5649 5647 5646 5645 5644 5643 5642 5642 5641 5640 5640 5639 5639 5638 5638 5638 5637 5636 5636 5635 5634 5634 5633 5632 5631 5629 5628 5627 5625 5624 5623 5621 5620
5647 5648 5646 5650 5648 5646 5645 5645 5643 5642 5641 5640 5639 5637 5636 5635 5634 5633 5632 5631 5631 5630 5629 5629 5628 5627 5626 5625 5625 5624 5623 5622 5621 5620 5619 5618 5617 5615 5614 5612 5611 5609 5608 5606
5636 5635 5635 5639 5637 5636 5635 5635 5634 5632 5632 5630 5629 5628 5627 5625 5624 5623 5622 5621 5620 5619 5619 5618 5617 5616 5615 5614 5613 5612 5611 5610 5609 5607 5606 5605 5603 5602 5600 5599 5597 5595 5594 5592
5624 5623 5624 5628 5626 5624 5624 5623 5623 5621 5620 5619 5618 5617 5618 5615 5613 5612 5611 5610 5609 5608 5607 5606 5606 5605 5604 5602 5601 5600 5599 5597 5596 5594 5592 5591 5589 5588 5586 5584 5583 5581 5579 5578
5612 5611 5612 5615 5613 5612 5613 5613 5611 5609 5608 5607 5606 5606 5605 5603 5602 5601 5599 5598 5597 5596 5595 5594 5593 5592 5591 5589 5588 5586 5585 5583 5582 5580 5578 5576 5575 5573 5571 5570 5568 5566 5565 5563
5600 5599 5603 5601 5600 5600 5599 5598 5597 5596 5595 5594 5594 5592 5591 5590 5589 5588 5587 5586 5584 5583 5582 5581 5580 5578 5577 5576 5574 5572 5571 5569 5567 5565 5563 5562 5560 5558 5556 5555 5553 5551 5549 5547
5587 5589 5588 5587 5586 5585 5585 5584 5583 5583 5582 5581 5580 5579 5578 5577 5575 5574 5573 5572 5570 5569 5568 5567 5565 5564 5563 5561 5559 5558 5556 5554 5552 5550 5548 5546 5544 5543 5541 5539 5537 5535 5534 5532
5572 5573 5573 5572 5571 5571 5570 5570 5569 5568 5568 5567 5566 5565 5564 5563 5561 5560 5559 5557 5556 5555 5554 5552 5551 5549 5548 5546 5545 5543 5542 5540 5537 5535 5533 5531 5529 5527 5525 5523 5521 5519 5518 5516
5556 5558 5557 5558 5557 5556 5556 5555 5554 5554 5553 5552 5551 5550 5549 5548 5546 5545 5544 5543 5541 5540 5539 5538 5536 5534 5533 5531 5530 5529 5527 5525 5523 5520 5518 5516 5514 5512 5509 5507 5505 5504 5502 5500
5542 5543 5541 5542 5542 5541 5540 5540 5539 5539 5538 5537 5536 5535 5534 5533 5532 5530 5529 5527 5526 5525 5524 5523 5521 5520 5518 5516 5515 5514 5512 5510 5508 5505 5503 5501 5499 5497 5494 5492 5490 5487 5486 5484
5525 5525 5524 5525 5526 5525 5524 5524 5524 5523 5522 5522 5521 5520 5519 5518 5517 5515 5514 5513 5511 5510 5509 5508 5506 5505 5503 5501 5500 5498 5497 5495 5493 5490 5488 5486 5483 5481 5480 5478 5475 5472 5470 5468
5509 5509 5509 5510 5509 5509 5508 5508 5508 5507 5507 5507 5506 5505 5504 5503 5502 5500 5499 5498 5496 5495 5494 5493 5492 5490 5488 5487 5485 5483 5482 5480 5478 5475 5473 5471 5469 5466 5464 5462 5461 5458 5456 5453
5494 5493 5493 5494 5494 5493 5493 5492 5492 5492 5492 5491 5491 5490 5489 5488 5487 5486 5485 5483 5482 5481 5479 5478 5477 5475 5473 5472 5470 5469 5467 5465 5463 5461 5458 5456 5454 5451 5449 5447 5445 5443 5441 5439
5479 5479 5478 5479 5479 5479 5478 5478 5477 5477 5477 5477 5476 5475 5475 5473 5473 5471 5470 5469 5468 5467 5465 5464 5462 5461 5459 5457 5456 5454 5452 5450 5448 5446 5444 5441 5439 5437 5434 5432 5430 5428 5426 5424
5466 5466 5465 5465 5465 5465 5464 5464 5463 5463 5463 5462 5461 5461 5460 5459 5458 5457 5456 5454 5453 5452 5451 5449 5448 5446 5445 5443 5441 5440 5438 5436 5433 5431 5429 5427 5424 5422 5420 5418 5415 5413 5411 5409
5452 5452 5452 5451 5451 5451 5451 5450 5449 5449 5448 5447 5447 5446 5445 5445 5444 5443 5442 5440 5439 5438 5437 5435 5433 5432 5430 5429 5427 5425 5423 5421 5419 5417 5414 5412 5410 5407 5405 5403 5401 5399 5397 5394
5440 5440 5439 5439 5438 5438 5438 5437 5436 5435 5434 5433 5433 5432 5431 5430 5429 5428 5427 5426 5425 5424 5423 5420 5419 5417 5416 5414 5412 5410 5408 5407 5405 5402 5400 5398 5395 5393 5391 5388 5386 5384 5382 5381
5428 5428 5427 5427 5426 5426 5425 5424 5423 5422 5421 5420 5419 5418 5417 5416 5415 5414 5413 5412 5410 5409 5408 5407 5405 5403 5402 5400 5398 5396 5394 5392 5390 5388 5386 5383 5381 5379 5377 5375 5373 5371 5369 5367
5417 5416 5415 5415 5414 5413 5413 5412 5411 5410 5408 5407 5406 5405 5404 5403 5402 5400 5399 5398 5397 5395 5393 5392 5391 5389 5387 5385 5383 5382 5380 5378 5376 5374 5372 5370 5368 5366 5364 5362 5360 5358 5356 5354
5405 5405 5404 5403 5402 5402 5401 5400 5399 5398 5397 5396 5394 5393 5392 5391 5389 5388 5386 5385 5383 5382 5380 5379 5377 5375 5373 5372 5370 5368 5366 5364 5362 5360 5359 5357 5355 5353 5351 5349 5348 5346 5344 5342
5394 5394 5393 5392 5391 5390 5389 5388 5387 5386 5385 5384 5382 5381 5380 5378 5377 5376 5375 5373 5370 5369 5367 5366 5364 5362 5360 5358 5357 5355 5353 5351 5349 5348 5346 5344 5342 5340 5339 5337 5336 5334 5333 5331
5383 5383 5382 5381 5380 5379 5378 5377 5375 5374 5373 5372 5371 5369 5367 5366 5365 5364 5362 5360 5358 5357 5355 5353 5352 5350 5348 5346 5344 5343 5341 5339 5337 5335 5333 5332 5330 5329 5327 5326 5324 5323 5322 5321
5373 5372 5371 5370 5369 5368 5367 5366 5365 5364 5363 5361 5360 5358 5356 5355 5354 5352 5350 5349 5347 5345 5343 5341 5339 5337 5335 5334 5332 5330 5328 5326 5325 5323 5322 5320 5319 5317 5316 5315 5314 5313 5312 5311
5363 5362 5361 5359 5358 5357 5356 5355 5354 5353 5352 5351 5350 5348 5346 5344 5342 5341 5339 5338 5336 5334 5332 5330 5328 5326 5324 5322 5320 5318 5317 5315 5313 5312 5311 5309 5308 5307 5305 5304 5303 5302 5301 5301
5353 5352 5351 5350 5348 5347 5345 5344 5343 5342 5340 5339 5338 5337 5335 5333 5331 5330 5328 5326 5325 5323 5321 5319 5317 5315 5313 5311 5309 5307 5306 5304 5303 5302 5300 5299 5298 5297 5296 5295 5294 5293 5292 5292